Location: Iesi
(43.5167°N, 13.2333°E)
Time: 02:08:59
(UTC+00:00)

Cosmos 1980 Rocket - Pass Details

Date: 08 August 2020
Orbit: 829 x 850 km, 71.0° (Epoch: 19 September)

Event Time Altitude Azimuth Distance (km) Brightness Sun altitude
Rises 20:37:11 0° 334° (NNW) 3,418 6.8 -20.8°
Reaches altitude 10° 20:39:39 10° 333° (NNW) 2,477 5.7 -21.1°
Maximum altitude 20:45:20 81° 247° (WSW) 859 2.2 -21.8°
Enters shadow 20:47:10 45° 168° (SSE) 1,140 2.4 -22.0°
